Monroe, MI

9:33 AM EDT on May 29, 2017 (GMT -0400)
Custer

Weather History for KTTF - August, 2013

Change the Weather History Date:

Tuesday, August 27, 2013

  Actual Average Record
Temperature  
Mean Temperature 80 °F -  
Max Temperature 86 °F 82 °F 95 °F (1948)
Min Temperature 73 °F 62 °F 45 °F (1935)
Cooling Degree Days 14    
Growing Degree Days 30 (Base 50)    
Moisture  
Dew Point 74 °F    
Average Humidity 86    
Maximum Humidity 100    
Minimum Humidity 74    
Precipitation  
Precipitation 0.00 in - - ()
Sea Level Pressure  
Sea Level Pressure 29.94 in    
Wind  
Wind Speed 5 mph (SW)    
Max Wind Speed 15 mph    
Max Gust Speed 31 mph    
Visibility 8 miles    
Events Rain    
Averages and records for this station are not official NWS values.
T = Trace of Precipitation, MM = Missing Value Source: NWS Daily Summary

Daily Weather History Graph

Daily Weather History Graph

Search for Another Location

Airport or City:

Trip Planner

Search our weather history database for the weather conditions in past years. The results will help you decide how hot, cold, wet, or windy it might be!

Date:

Astronomy

Aug. 27, 2013 Rise Set
Actual Time 6:54 AM EDT 8:15 PM EDT
Civil Twilight 6:25 AM EDT 8:44 PM EDT
Nautical Twilight 5:50 AM EDT 9:18 PM EDT
Astronomical Twilight 5:13 AM EDT 9:55 PM EDT
Moon No Moon Rise 1:58 PM EDT (8/27)
Length of Visible Light 14h 18m
Length of Day
13h 20m
Waning Gibbous, 57% of the Moon is Illuminated
Aug 27
Waning Gibbous
Aug 28
Last Quarter
Sep 5
New
Sep 12
First Quarter
Sep 19
Full

Hourly Weather History & Observations

Time (EDT) Temp. Heat Index Dew Point Humidity Pressure Visibility Wind Dir Wind Speed Gust Speed Precip Events Conditions
12:14 AM 78.8 °F - 73.4 °F 83% 30.00 in 10.0 mi Calm Calm - N/A   Overcast
12:34 AM 78.8 °F - 73.4 °F 83% 30.00 in 10.0 mi Calm Calm - N/A   Overcast
12:54 AM 77.0 °F - 71.6 °F 83% 30.00 in 10.0 mi WSW 3.5 mph - N/A   Mostly Cloudy
1:14 AM 75.2 °F - 71.6 °F 89% 30.00 in 10.0 mi WSW 4.6 mph - N/A   Scattered Clouds
1:34 AM 75.2 °F - 71.6 °F 89% 30.00 in 10.0 mi WSW 3.5 mph - N/A   Scattered Clouds
1:55 AM 75.2 °F - 71.6 °F 89% 29.99 in 10.0 mi WSW 3.5 mph - N/A   Mostly Cloudy
2:15 AM 75.2 °F - 71.6 °F 89% 29.98 in 7.0 mi WSW 3.5 mph - N/A   Overcast
2:35 AM 75.2 °F - 71.6 °F 89% 29.98 in 10.0 mi WSW 3.5 mph - N/A   Mostly Cloudy
2:55 AM 75.2 °F - 71.6 °F 89% 29.98 in 7.0 mi WSW 4.6 mph - N/A   Scattered Clouds
3:15 AM 75.2 °F - 71.6 °F 89% 29.97 in 7.0 mi WSW 4.6 mph - N/A   Scattered Clouds
3:35 AM 75.2 °F - 71.6 °F 89% 29.97 in 7.0 mi SW 4.6 mph - N/A   Clear
3:55 AM 75.2 °F - 71.6 °F 89% 29.97 in 7.0 mi WSW 6.9 mph - N/A   Mostly Cloudy
4:15 AM 75.2 °F - 71.6 °F 89% 29.97 in 10.0 mi WSW 5.8 mph - N/A   Overcast
4:35 AM 75.2 °F - 71.6 °F 89% 29.96 in 10.0 mi WSW 6.9 mph - N/A   Overcast
4:55 AM 77.0 °F - 71.6 °F 83% 29.96 in 10.0 mi WSW 6.9 mph - N/A   Overcast
5:15 AM 75.2 °F - 71.6 °F 89% 29.95 in 10.0 mi WSW 6.9 mph - N/A   Mostly Cloudy
5:36 AM 75.2 °F - 71.6 °F 89% 29.95 in 7.0 mi WSW 5.8 mph - N/A   Scattered Clouds
5:56 AM 75.2 °F - 71.6 °F 89% 29.95 in 7.0 mi WSW 5.8 mph - N/A   Mostly Cloudy
6:16 AM 75.2 °F - 71.6 °F 89% 29.95 in 7.0 mi WSW 4.6 mph - N/A   Scattered Clouds
6:36 AM 75.2 °F - 71.6 °F 89% 29.96 in 10.0 mi West 5.8 mph - N/A   Mostly Cloudy
6:56 AM 75.2 °F - 71.6 °F 89% 29.96 in 10.0 mi WSW 4.6 mph - N/A   Overcast
7:16 AM 75.2 °F - 71.6 °F 89% 29.96 in 10.0 mi West 8.1 mph - N/A   Overcast
7:36 AM 75.2 °F - 71.6 °F 89% 29.97 in 10.0 mi WNW 8.1 mph - N/A   Overcast
7:56 AM 75.2 °F - 71.6 °F 89% 30.01 in 2.0 mi WNW 15.0 mph 31.1 mph N/A Rain Heavy Rain
8:16 AM 75.2 °F - 73.4 °F 94% 30.01 in 4.0 mi NNW 6.9 mph - N/A Rain Light Rain
8:32 AM 75.2 °F - 71.6 °F 89% 29.99 in 5.0 mi North 8.1 mph - N/A Rain Rain
8:52 AM 73.4 °F - 71.6 °F 94% 30.02 in 2.5 mi WNW 6.9 mph - N/A Rain Rain
9:12 AM 73.4 °F - 71.6 °F 94% 30.00 in 2.0 mi NW 3.5 mph - N/A Rain Rain
9:32 AM 73.4 °F - 71.6 °F 94% 29.98 in 7.0 mi SSW 3.5 mph - N/A Rain Rain
9:52 AM 73.4 °F - 73.4 °F 100% 29.96 in 7.0 mi Calm Calm - N/A Rain Light Rain
10:12 AM 75.2 °F - 73.4 °F 94% 29.96 in 10.0 mi Calm Calm - N/A   Clear
10:32 AM 75.2 °F - 73.4 °F 94% 29.96 in 10.0 mi South 6.9 mph - N/A   Clear
10:52 AM 75.2 °F - 73.4 °F 94% 29.97 in 10.0 mi Calm Calm - N/A   Scattered Clouds
11:12 AM 75.2 °F - 73.4 °F 94% 29.97 in 10.0 mi SSW 5.8 mph - N/A   Scattered Clouds
11:32 AM 75.2 °F - 73.4 °F 94% 29.97 in 10.0 mi SW 9.2 mph - N/A   Scattered Clouds
11:53 AM 75.2 °F - 73.4 °F 94% 29.98 in 10.0 mi SW 10.4 mph - N/A   Scattered Clouds
12:13 PM 77.0 °F - 73.4 °F 89% 29.98 in 10.0 mi SW 8.1 mph - N/A   Scattered Clouds
12:33 PM 78.8 °F - 73.4 °F 83% 29.98 in 10.0 mi WSW 9.2 mph - N/A   Scattered Clouds
12:53 PM 78.8 °F - 75.2 °F 89% 29.97 in 7.0 mi SSW 8.1 mph - N/A   Mostly Cloudy
1:13 PM 80.6 °F 86.2 °F 75.2 °F 84% 29.96 in 10.0 mi South 11.5 mph - N/A   Scattered Clouds
1:33 PM 80.6 °F 86.2 °F 75.2 °F 84% 29.95 in 7.0 mi SSW 9.2 mph - N/A   Scattered Clouds
1:53 PM 82.4 °F 89.5 °F 75.2 °F 79% 29.94 in 10.0 mi SSW 5.8 mph - N/A   Clear
2:13 PM 82.4 °F 89.5 °F 75.2 °F 79% 29.94 in 10.0 mi SW 6.9 mph - N/A   Clear
2:33 PM 82.4 °F 89.5 °F 75.2 °F 79% 29.93 in 10.0 mi SSW 6.9 mph - N/A   Clear
2:53 PM 82.4 °F 89.5 °F 75.2 °F 79% 29.93 in 10.0 mi SW 9.2 mph - N/A   Clear
3:14 PM 82.4 °F 89.5 °F 75.2 °F 79% 29.92 in 10.0 mi WNW 5.8 mph - N/A   Clear
3:34 PM 84.2 °F 92.3 °F 75.2 °F 74% 29.91 in 10.0 mi SSW 8.1 mph - N/A   Clear
3:54 PM 84.2 °F 92.3 °F 75.2 °F 74% 29.90 in 10.0 mi SW 8.1 mph - N/A   Clear
4:14 PM 84.2 °F 92.3 °F 75.2 °F 74% 29.90 in 10.0 mi SW 6.9 mph - N/A   Clear
4:34 PM 84.2 °F 92.3 °F 75.2 °F 74% 29.90 in 10.0 mi WSW 5.8 mph - N/A   Clear
4:54 PM 84.2 °F 92.3 °F 75.2 °F 74% 29.90 in 10.0 mi West 4.6 mph - N/A   Clear
5:14 PM 84.2 °F 94.1 °F 77.0 °F 79% 29.90 in 10.0 mi West 5.8 mph - N/A   Clear
5:34 PM 86.0 °F 96.9 °F 77.0 °F 74% 29.90 in 10.0 mi West 5.8 mph - N/A   Clear
5:54 PM 84.2 °F 92.3 °F 75.2 °F 74% 29.89 in 10.0 mi SW 10.4 mph - N/A   Clear
6:15 PM 84.2 °F 92.3 °F 75.2 °F 74% 29.89 in 7.0 mi SW 6.9 mph - N/A   Clear
6:35 PM 84.2 °F 94.1 °F 77.0 °F 79% 29.90 in 7.0 mi SW 6.9 mph - N/A   Clear
6:55 PM 84.2 °F 92.3 °F 75.2 °F 74% 29.88 in 10.0 mi SSW 5.8 mph - N/A   Clear
7:15 PM 84.2 °F 94.1 °F 77.0 °F 79% 29.87 in 10.0 mi SSW 3.5 mph - N/A   Clear
7:35 PM 82.4 °F 90.9 °F 77.0 °F 84% 29.88 in 7.0 mi Calm Calm - N/A   Clear
7:55 PM 82.4 °F 90.9 °F 77.0 °F 84% 29.88 in 10.0 mi SSW 3.5 mph - N/A   Clear
8:15 PM 82.4 °F 90.9 °F 77.0 °F 84% 29.88 in 10.0 mi Calm Calm - N/A   Scattered Clouds
8:35 PM 82.4 °F 90.9 °F 77.0 °F 84% 29.89 in 7.0 mi Calm Calm - N/A Rain Light Rain
8:55 PM 80.6 °F 87.1 °F 77.0 °F 89% 29.90 in 7.0 mi Calm Calm - N/A Rain Rain
9:15 PM 80.6 °F 88.1 °F 78.8 °F 94% 29.90 in 5.0 mi Calm Calm - N/A Rain Light Rain
9:36 PM 78.8 °F - 77.0 °F 94% 29.90 in 2.5 mi East 3.5 mph - N/A Rain Light Rain
9:56 PM 78.8 °F - 77.0 °F 94% 29.89 in 2.5 mi Calm Calm - N/A   Scattered Clouds
10:16 PM 78.8 °F - 77.0 °F 94% 29.88 in 3.0 mi Calm Calm - N/A   Clear
10:36 PM 80.6 °F 88.1 °F 78.8 °F 94% 29.86 in 4.0 mi South 5.8 mph - N/A   Scattered Clouds
10:56 PM 80.6 °F 87.1 °F 77.0 °F 89% 29.85 in 7.0 mi SSW 6.9 mph - N/A Rain Light Rain
11:16 PM 80.6 °F 87.1 °F 77.0 °F 89% 29.86 in 7.0 mi SW 8.1 mph - N/A Rain Light Rain
11:36 PM 82.4 °F 90.9 °F 77.0 °F 84% 29.86 in 10.0 mi SW 6.9 mph - N/A   Scattered Clouds
11:56 PM 82.4 °F 90.9 °F 77.0 °F 84% 29.84 in 10.0 mi SW 5.8 mph - N/A Rain Light Rain